Weather History for KODX - May, 2013

Change the Weather History Date:

Thursday, May 23, 2013

  Actual Average Record
Temperature  
Mean Temperature 58 °F 62 °F  
Max Temperature 70 °F 74 °F 90 °F (2006)
Min Temperature 46 °F 50 °F 39 °F (2001)
Degree Days  
Heating Degree Days 7 5  
Month to date heating degree days 218 186  
Since 1 July heating degree days 6820 6539  
Cooling Degree Days 0 2  
Month to date cooling degree days 32 23  
Year to date cooling degree days 33 25  
Growing Degree Days 8 (Base 50)    
Moisture  
Dew Point 45 °F    
Average Humidity 65    
Maximum Humidity 93    
Minimum Humidity 37    
Precipitation  
Precipitation T in 0.13 in 3.65 in (1923)
Month to date precipitation 2.95 2.64  
Year to date precipitation 7.69 7.49  
Sea Level Pressure  
Sea Level Pressure 30.16 in    
Wind  
Wind Speed 11 mph (NE)    
Max Wind Speed 22 mph    
Max Gust Speed 31 mph    
Visibility 10 miles    
Events Rain    
T = Trace of Precipitation, MM = Missing Value Source: NWS Daily Summary

Daily Weather History Graph

Daily Weather History Graph

Search for Another Location

Airport or City:

Trip Planner

Search our weather history database for the weather conditions in past years. The results will help you decide how hot, cold, wet, or windy it might be!

Date:

Astronomy

May. 23, 2013 Rise Set
Actual Time 6:09 AM CDT 8:56 PM CDT
Civil Twilight 5:36 AM CDT 9:29 PM CDT
Nautical Twilight 4:55 AM CDT 10:10 PM CDT
Astronomical Twilight 4:08 AM CDT 10:57 PM CDT
Moon 7:29 PM CDT (5/23) 4:56 AM CDT (5/23)
Length of Visible Light 15h 52m
Length of Day
14h 47m
Waxing Gibbous, 97% of the Moon is Illuminated
May 23
Waxing Gibbous
May 24
Full
May 31
Last Quarter
Jun 8
New
Jun 16
First Quarter

Hourly Weather History & Observations

Time (CDT) Temp. Windchill Dew Point Humidity Pressure Visibility Wind Dir Wind Speed Gust Speed Precip Events Conditions
12:06 AM 50.0 °F - 46.4 °F 87% 30.07 in 10.0 mi NNW 9.2 mph - N/A   Overcast
12:53 AM 50.0 °F - 46.9 °F 89% 30.09 in 10.0 mi NNW 8.1 mph - N/A   Mostly Cloudy
1:41 AM 50.0 °F - 46.4 °F 87% 30.09 in 10.0 mi NW 6.9 mph - N/A   Overcast
1:53 AM 50.0 °F - 48.0 °F 93% 30.11 in 5.0 mi NNW 6.9 mph - 0.00 in Rain Light Rain
2:06 AM 50.0 °F - 48.2 °F 94% 30.09 in 10.0 mi NNW 5.8 mph - 0.00 in   Overcast
2:34 AM 50.0 °F - 48.2 °F 94% 30.09 in 5.0 mi NNW 8.1 mph - 0.00 in   Overcast
2:53 AM 50.0 °F - 48.9 °F 96% 30.10 in 9.0 mi NNW 8.1 mph - 0.00 in   Overcast
3:29 AM 50.0 °F - 48.2 °F 94% 30.10 in 10.0 mi North 6.9 mph - N/A   Overcast
3:53 AM 50.0 °F - 46.9 °F 89% 30.11 in 10.0 mi NNW 9.2 mph - N/A   Overcast
4:48 AM 48.2 °F - 46.4 °F 93% 30.12 in 10.0 mi North 9.2 mph - N/A   Scattered Clouds
4:53 AM 48.9 °F - 46.0 °F 90% 30.13 in 10.0 mi North 9.2 mph - N/A   Partly Cloudy
5:42 AM 48.2 °F - 44.6 °F 87% 30.15 in 10.0 mi North 11.5 mph - N/A   Mostly Cloudy
5:53 AM 48.0 °F - 45.0 °F 89% 30.16 in 10.0 mi North 11.5 mph - N/A   Mostly Cloudy
6:15 AM 46.4 °F 40.7 °F 44.6 °F 93% 30.15 in 10.0 mi North 12.7 mph - N/A   Overcast
6:43 AM 46.4 °F 40.7 °F 44.6 °F 93% 30.16 in 10.0 mi North 12.7 mph - N/A   Scattered Clouds
6:53 AM 46.0 °F 41.9 °F 44.1 °F 93% 30.19 in 10.0 mi North 8.1 mph - N/A   Scattered Clouds
7:00 AM 46.4 °F 42.4 °F 44.6 °F 93% 30.18 in 10.0 mi North 8.1 mph - N/A   Mostly Cloudy
7:06 AM 46.4 °F 40.7 °F 44.6 °F 93% 30.18 in 10.0 mi North 12.7 mph 17.3 mph N/A   Mostly Cloudy
7:53 AM 48.0 °F - 45.0 °F 89% 30.21 in 10.0 mi NE 12.7 mph 18.4 mph N/A   Overcast
8:53 AM 50.0 °F - 45.0 °F 83% 30.25 in 10.0 mi East 8.1 mph - N/A   Overcast
9:03 AM 50.0 °F - 44.6 °F 82% 30.23 in 10.0 mi ENE 6.9 mph - N/A   Overcast
9:32 AM 53.6 °F - 46.4 °F 77% 30.22 in 10.0 mi ENE 11.5 mph - N/A   Overcast
9:53 AM 53.1 °F - 46.0 °F 77% 30.23 in 10.0 mi ENE 10.4 mph 20.7 mph N/A   Mostly Cloudy
10:20 AM 57.2 °F - 46.4 °F 67% 30.21 in 10.0 mi East 16.1 mph - N/A   Scattered Clouds
10:53 AM 57.9 °F - 46.0 °F 65% 30.21 in 10.0 mi ENE 17.3 mph 23.0 mph N/A   Clear
11:53 AM 62.1 °F - 45.0 °F 53% 30.19 in 10.0 mi East 18.4 mph 24.2 mph N/A   Clear
12:53 PM 64.9 °F - 44.1 °F 47% 30.19 in 10.0 mi East 17.3 mph 25.3 mph N/A   Clear
1:53 PM 66.9 °F - 42.1 °F 40% 30.19 in 10.0 mi ESE 15.0 mph 24.2 mph N/A   Clear
2:53 PM 68.0 °F - 42.1 °F 39% 30.18 in 10.0 mi East 13.8 mph 21.9 mph N/A   Clear
3:53 PM 68.0 °F - 42.1 °F 39% 30.18 in 10.0 mi SE 12.7 mph - N/A   Clear
4:53 PM 69.1 °F - 43.0 °F 39% 30.17 in 10.0 mi SE 16.1 mph 23.0 mph N/A   Clear
5:53 PM 69.1 °F - 42.1 °F 38% 30.16 in 10.0 mi ESE 15.0 mph 21.9 mph N/A   Clear
6:53 PM 68.0 °F - 43.0 °F 40% 30.16 in 10.0 mi ESE 12.7 mph 24.2 mph N/A   Clear
7:53 PM 66.0 °F - 43.0 °F 43% 30.15 in 10.0 mi ESE 12.7 mph 20.7 mph N/A   Clear
8:53 PM 63.0 °F - 44.1 °F 50% 30.16 in 10.0 mi ESE 6.9 mph - N/A   Clear
9:53 PM 59.0 °F - 46.0 °F 62% 30.18 in 10.0 mi SE 3.5 mph - N/A   Clear
10:53 PM 53.1 °F - 46.0 °F 77% 30.20 in 10.0 mi Calm Calm - N/A   Clear
11:53 PM 53.1 °F - 46.9 °F 80% 30.19 in 10.0 mi ESE 4.6 mph - N/A   Clear